Total_Precipitation_Accumulation
2.08 2.36 3.31 4.35 4.27 3.40 2.63 1.88 1.25 0.93 0.80 0.77 0.78 0.72 0.69 0.74 0.71 0.73 0.47 0.42 0.39 0.37 0.40 0.46 0.47 0.55 0.59 0.63 0.73 0.85 1.06 1.40 1.58 0.88 0.66 0.54 0.46 0.31 0.24 0.27 0.24 0.18 0.17
2.37 2.25 2.29 2.86 3.79 3.68 3.25 2.49 2.14 1.18 0.87 0.77 0.70 0.82 0.74 0.68 0.68 0.70 0.64 0.50 0.46 0.37 0.33 0.35 0.41 0.46 0.50 0.57 0.63 0.67 0.78 0.86 1.04 0.73 0.35 0.27 0.23 0.18 0.17 0.21 0.20 0.19 0.18
2.77 2.57 2.17 2.25 2.91 3.45 3.28 3.11 3.24 2.57 1.50 1.13 1.04 0.88 0.75 0.76 0.72 0.69 0.66 0.69 0.66 0.57 0.52 0.51 0.52 0.67 0.73 0.76 0.87 0.88 0.86 0.84 0.84 0.88 0.56 0.35 0.29 0.29 0.36 0.39 0.38 0.38 0.35
2.68 2.97 2.40 2.15 2.56 3.17 3.30 3.39 3.16 3.38 2.93 2.06 1.53 1.36 1.40 1.24 1.09 0.99 0.85 0.80 0.73 0.70 0.68 0.70 0.76 0.79 0.77 0.78 0.85 0.83 0.90 0.97 1.01 1.01 0.92 0.77 0.61 0.50 0.64 0.62 0.54 0.47 0.47
2.10 2.39 2.48 2.49 2.53 3.11 3.47 3.75 3.32 3.42 3.27 3.02 2.65 2.20 2.03 2.19 2.14 1.95 1.66 1.41 1.28 1.20 1.13 1.03 0.92 1.00 0.99 0.90 0.94 0.90 1.08 1.26 1.42 1.61 1.51 1.38 1.28 1.09 0.93 0.85 1.00 0.90 0.87
2.07 2.13 1.97 2.35 2.72 3.05 3.27 3.27 3.08 3.71 3.57 3.84 3.35 2.80 2.52 2.22 2.66 2.71 2.51 2.28 2.15 1.91 1.60 1.30 1.19 1.35 1.18 1.20 1.15 1.14 1.20 1.42 1.60 1.71 1.57 1.38 1.05 0.94 0.93 1.15 1.41 1.58 1.50
1.61 1.81 1.92 2.16 2.03 2.64 2.90 3.06 3.11 3.50 4.29 4.50 4.43 3.75 3.34 3.12 3.23 3.10 3.47 3.14 2.77 2.36 2.00 1.70 1.51 1.40 1.49 1.34 1.44 1.46 1.53 1.79 1.78 1.59 1.50 1.31 1.25 1.11 1.41 1.72 1.75 1.81 1.67
1.14 1.48 1.87 1.86 1.92 1.96 2.18 3.09 3.08 2.89 3.34 4.03 4.50 4.54 4.48 4.19 3.92 3.37 3.46 3.37 3.12 2.63 2.32 2.13 1.91 1.73 1.77 1.87 1.74 1.93 1.75 1.57 1.45 1.42 1.41 1.32 1.34 1.36 1.55 1.82 1.73 1.81 1.61
0.63 0.81 1.09 1.28 1.38 1.44 1.77 2.11 2.16 2.39 2.62 2.92 2.96 3.15 3.34 3.33 3.38 3.06 2.65 2.26 2.09 1.93 1.75 1.68 1.73 1.65 1.79 1.93 1.88 1.85 1.48 1.31 1.52 1.64 1.49 1.44 1.41 1.25 1.13 1.40 1.60 1.55 1.47
0.45 0.52 0.59 0.90 1.02 1.41 1.62 1.71 1.90 2.01 2.32 2.28 2.16 2.10 2.22 2.38 2.85 3.16 3.02 2.42 1.92 1.65 1.49 1.34 1.39 1.08 1.23 1.58 1.30 1.06 1.11 0.97 1.08 1.19 1.18 1.10 1.05 1.09 1.29 1.18 1.51 2.25 1.82
0.60 0.65 0.75 0.96 0.97 1.06 1.29 1.34 1.33 1.29 1.50 1.67 1.59 1.58 1.50 1.45 1.61 1.87 2.00 2.03 2.00 1.80 1.48 1.33 1.34 1.65 1.69 1.60 1.47 1.24 1.29 1.37 1.31 1.10 0.97 0.96 0.93 0.89 0.87 0.97 1.25 2.18 2.46
0.68 0.61 0.62 0.56 0.55 0.53 0.57 0.64 0.77 0.83 0.80 1.03 1.18 1.12 1.06 0.98 1.21 1.26 1.20 1.12 1.32 1.21 1.01 0.90 0.98 1.38 1.04 0.99 0.94 0.92 0.97 0.91 0.68 0.67 0.67 0.67 0.67 0.75 0.86 1.00 1.09 1.24 1.40
0.16 0.14 0.16 0.11 0.09 0.10 0.13 0.21 0.32 0.54 0.72 0.70 0.73 0.76 0.84 0.85 0.91 1.14 1.22 1.32 1.29 1.23 1.08 1.15 1.15 0.98 0.84 0.79 0.81 0.86 0.90 0.68 0.70 0.83 0.81 0.81 0.84 0.99 1.05 1.01 1.08 1.08 1.12
0.02 0.02 0.01 0.01 0.03 0.03 0.05 0.10 0.16 0.24 0.38 0.55 0.59 0.58 0.59 0.57 0.62 0.79 0.99 1.09 1.03 0.98 1.12 1.13 0.91 0.88 0.85 0.69 0.82 0.82 0.66 0.68 0.91 1.03 1.07 1.01 1.13 1.12 1.05 1.15 1.41 1.36 1.68
0.09 0.13 0.17 0.15 0.13 0.07 0.05 0.08 0.13 0.20 0.29 0.30 0.32 0.42 0.49 0.48 0.50 0.62 0.72 0.79 0.99 1.14 1.00 0.61 0.57 0.55 0.61 0.67 0.60 0.67 0.82 0.93 0.98 0.94 1.15 1.12 1.11 1.24 1.26 1.40 1.72 1.89 1.82
0.03 0.02 0.07 0.12 0.23 0.33 0.36 0.41 0.48 0.50 0.56 0.55 0.57 0.48 0.41 0.52 0.68 0.67 0.65 0.81 0.91 1.08 1.18 0.90 0.71 0.57 0.53 0.57 0.68 0.75 0.86 1.04 0.91 1.01 1.01 1.07 1.22 1.24 1.37 1.55 1.75 1.74 1.55
0.13 0.09 0.05 0.06 0.03 0.03 0.06 0.11 0.17 0.27 0.34 0.42 0.56 0.69 0.70 0.70 0.64 0.72 0.88 0.94 0.96 0.95 0.89 0.70 0.75 0.80 0.81 0.84 0.86 0.91 0.90 0.79 0.98 1.21 1.20 1.13 1.24 1.41 1.76 1.54 1.50 1.49 1.27
0.27 0.28 0.17 0.11 0.07 0.07 0.07 0.06 0.06 0.05 0.03 0.07 0.17 0.26 0.39 0.49 0.55 0.53 0.68 0.74 0.64 0.69 0.64 0.65 0.62 0.68 0.76 0.86 0.88 0.94 0.93 0.93 1.09 1.11 1.20 1.14 1.24 1.56 1.60 1.50 1.37 1.31 1.25
0.41 0.38 0.35 0.28 0.20 0.17 0.12 0.10 0.11 0.10 0.07 0.04 0.04 0.11 0.21 0.32 0.41 0.50 0.51 0.43 0.38 0.53 0.56 0.63 0.62 0.58 0.69 0.75 0.77 0.76 0.84 1.11 1.39 1.46 1.35 1.34 1.34 1.76 1.65 1.28 1.18 1.24 1.26
0.45 0.54 0.49 0.42 0.38 0.31 0.25 0.21 0.21 0.24 0.25 0.21 0.17 0.15 0.20 0.28 0.27 0.21 0.32 0.36 0.43 0.50 0.53 0.60 0.66 0.69 0.70 0.83 0.88 0.93 0.96 1.09 1.14 1.16 1.23 1.37 1.54 1.77 1.70 1.31 1.09 1.18 1.11
0.42 0.44 0.50 0.45 0.44 0.42 0.41 0.39 0.33 0.32 0.36 0.37 0.33 0.41 0.54 0.47 0.29 0.30 0.28 0.32 0.43 0.48 0.52 0.56 0.59 0.72 0.78 0.84 0.96 1.09 1.28 1.18 1.21 1.47 1.50 1.49 1.58 1.56 1.04 1.09 1.09 1.12 1.16
0.37 0.42 0.40 0.39 0.45 0.53 0.53 0.52 0.54 0.51 0.47 0.46 0.40 0.44 0.52 0.44 0.36 0.38 0.44 0.47 0.43 0.46 0.49 0.54 0.59 0.58 0.85 1.20 1.40 1.49 1.47 1.46 1.40 1.61 1.61 1.46 1.42 1.26 1.18 1.20 1.10 1.13 1.21
0.23 0.26 0.29 0.32 0.35 0.43 0.50 0.48 0.49 0.51 0.46 0.40 0.39 0.41 0.43 0.43 0.41 0.41 0.39 0.42 0.53 0.56 0.51 0.52 0.55 0.57 0.51 0.83 1.31 1.89 2.02 1.61 1.60 1.77 1.84 1.62 1.48 1.44 1.52 1.56 1.32 1.32 1.22
0.14 0.17 0.18 0.19 0.24 0.26 0.29 0.33 0.36 0.43 0.45 0.41 0.36 0.36 0.40 0.39 0.36 0.37 0.37 0.39 0.42 0.46 0.50 0.53 0.58 0.61 0.65 0.76 1.04 1.36 1.74 1.84 1.99 2.09 2.28 2.34 1.72 1.49 1.43 1.42 1.22 1.20 1.22
0.11 0.12 0.14 0.17 0.19 0.21 0.24 0.26 0.30 0.32 0.35 0.38 0.40 0.41 0.40 0.43 0.43 0.41 0.42 0.43 0.47 0.46 0.44 0.52 0.66 0.75 0.80 0.96 1.10 1.18 1.52 1.58 1.70 1.75 1.71 1.71 1.57 1.28 1.33 1.45 1.18 1.25 1.24
0.15 0.16 0.17 0.18 0.20 0.21 0.25 0.26 0.27 0.30 0.35 0.37 0.41 0.45 0.46 0.49 0.46 0.43 0.47 0.53 0.52 0.47 0.46 0.47 0.58 0.76 0.89 1.05 1.18 1.36 1.40 1.31 1.23 1.08 1.32 1.67 1.38 1.16 1.20 1.36 1.23 1.36 1.29